This demonstration page uses our WeatherBlox Daily Observations layout. Learn more.

Left ArrowRight Arrow

39.08367, -84.50855

Hourly Observations for December 19, 2017

Temp ( °F °C ) Dew Point ( °F °C ) Humidity (%) Winds ( mph kmh ) Pressure ( in mb ) Visibility ( mi km ) Precip ( " mm )
12:53 am 00:53 Cloudy 47 8.3 42 5.6 83 83 SSW 13 20 30.06 1018 10 16 N/A
1:53 am 01:53 Cloudy 47 8.3 42 5.6 83 83 SSW 13 20 30.07 1018 10 16 N/A
2:30 am 02:30 Cloudy 47 8.3 41 5 80 80 SW 12 19 30.09 1019 10 16 N/A
2:53 am 02:53 Cloudy 47 8.3 41 5 80 80 SW 8 13 30.08 1019 10 16 N/A
3:53 am 03:53 Cloudy 47 8.3 41 5 80 80 SW 8 13 30.08 1019 10 16 N/A
4:53 am 04:53 Cloudy 46 7.8 41 5 83 83 SSW 9 15 30.07 1018 10 16 N/A
5:53 am 05:53 Cloudy 46 7.8 41 5 83 83 SSW 9 15 30.08 1019 10 16 N/A
6:53 am 06:53 Cloudy 46 7.8 41 5 83 83 SSW 12 19 30.08 1019 9 14 N/A
7:53 am 07:53 Cloudy 46 7.8 41 5 83 83 SSW 9 15 30.08 1019 8 13 N/A
8:53 am 08:53 Cloudy 46 7.8 42 5.6 86 86 SSW 8 13 30.09 1019 7 11 N/A
9:53 am 09:53 Cloudy 47 8.3 42 5.6 83 83 SSW 10 17 30.09 1019 7 11 N/A
10:53 am 10:53 Cloudy 47 8.3 41 5 80 80 SSW 14 22 30.07 1018 7 11 N/A
11:53 am 11:53 Cloudy 47 8.3 41 5 80 80 SSW 13 20 30.06 1018 7 11 N/A
12:53 pm 12:53 Cloudy 48 8.9 42 5.6 80 80 SSW 12 19 30.04 1017 7 11 N/A
1:53 pm 13:53 Cloudy 49 9.4 42 5.6 77 77 SW 9 15 30.03 1017 6 10 N/A
2:53 pm 14:53 Mostly Cloudy 50 10 42 5.6 74 74 WSW 9 15 30.02 1017 7 11 N/A
3:53 pm 15:53 Mostly Sunny 50 10 42 5.6 74 74 W 9 15 30.02 1017 8 13 N/A
4:53 pm 16:53 Sunny 48 8.9 42 5.6 80 80 W 6 9 30.01 1016 7 11 N/A
5:53 pm 17:53 Clear 46 7.8 41 5 83 83 N N/A 30.03 1017 8 13 N/A
6:53 pm 18:53 Mostly Clear 42 5.6 40 4.4 92 92 N N/A 30.05 1018 7 11 N/A
7:34 pm 19:34 Mostly Cloudy 43 6.1 40 4.4 89 89 N N/A 30.06 1018 7 11 N/A
7:53 pm 19:53 Mostly Cloudy 46 7.8 42 5.6 86 86 VRB 3 6 30.08 1019 7 11 N/A
8:00 pm 20:00 Mostly Clear 45 7.2 42 5.6 90 90 W 3 6 30.06 1018 7 11 N/A
8:43 pm 20:43 Mostly Cloudy with Mist and Fog 47 8.3 43 6.1 86 86 WSW 5 7 30.09 1019 6 10 N/A
8:53 pm 20:53 Mostly Cloudy with Mist and Fog 46 7.8 42 5.6 86 86 WSW 3 6 30.09 1019 6 10 N/A
9:28 pm 21:28 Mostly Clear with Mist and Fog 46 7.8 42 5.6 86 86 WSW 6 9 30.09 1019 6 10 N/A
9:53 pm 21:53 Clear with Mist and Fog 45 7.2 41 5 86 86 WSW 5 7 30.09 1019 6 10 N/A
10:53 pm 22:53 Clear with Mist and Fog 43 6.1 41 5 93 93 N N/A 30.09 1019 6 10 N/A
11:53 pm 23:53 Clear with Mist and Fog 39 3.9 38 3.3 96 96 N N/A 30.09 1019 4 6 N/A

Powered by AerisWeather